Location: Tauranga
(37.6860°S, 176.1670°E)
Time: 15:44:52
(UTC+13:00)

Cosmos 1869 - Pass Details

Date: 24 January 2019
Orbit: 537 x 547 km, 82.5° (Epoch: 15 February)

Event Time Altitude Azimuth Distance (km) Brightness Sun altitude
Rises 20:58:34 0° 12° (NNE) 2,702 6.4 -5.1°
Reaches altitude 10° 21:00:48 10° 20° (NNE) 1,817 5.5 -5.4°
Maximum altitude 21:04:31 37° 88° (E) 864 3.9 -6.1°
Drops below altitude 10° 21:08:15 10° 156° (SSE) 1,838 6.1 -6.7°
Sets 21:10:32 0° 163° (SSE) 2,738 7.1 -7.1°
